This is the latest recevied weather packets stored in our database for station/object NZ3C. If no packets are shown the sender has not sent any weather packets the latest 10 day(s).
| Time | Temp. | Humidity | Pressure | Rain* | Wind** | Luminosity | Snow |
|---|---|---|---|---|---|---|---|
| 1777038743 | 23.33° C | 43% | 1013.6 hPa | 0 mm | - | 507 W/m² | - |
| 1777038438 | 23.33° C | 43% | 1013.6 hPa | 0 mm | - | 493 W/m² | - |
| 1777038133 | 23.33° C | 44% | 1013.8 hPa | 0 mm | - | 475 W/m² | - |
| 1777037829 | 22.78° C | 44% | 1013.7 hPa | 0 mm | - | 462 W/m² | - |
| 1777037525 | 22.22° C | 46% | 1013.9 hPa | 0 mm | - | 441 W/m² | - |
| 1777037221 | 22.22° C | 44% | 1014 hPa | 0 mm | - | 427 W/m² | - |
| 1777036918 | 22.22° C | 47% | 1013.9 hPa | 0 mm | - | 405 W/m² | - |
| 1777036616 | 21.67° C | 45% | 1014 hPa | 0 mm | - | 392 W/m² | - |
| 1777036315 | 21.67° C | 45% | 1014 hPa | 0 mm | - | 376 W/m² | - |
| 1777036012 | 21.67° C | 45% | 1013.9 hPa | 0 mm | - | 357 W/m² | - |
| 1777035711 | 21.67° C | 46% | 1013.8 hPa | 0 mm | - | 340 W/m² | - |
| 1777035408 | 21.67° C | 46% | 1013.9 hPa | 0 mm | - | 320 W/m² | - |
| 1777035103 | 21.11° C | 46% | 1013.9 hPa | 0 mm | - | 305 W/m² | - |
| 1777034800 | 21.11° C | 47% | 1013.9 hPa | 0 mm | - | 286 W/m² | - |
| 1777034498 | 21.11° C | 46% | 1013.9 hPa | 0 mm | - | 270 W/m² | - |
| 1777034194 | 20.56° C | 47% | 1014 hPa | 0 mm | - | 255 W/m² | - |
| 1777033893 | 20.56° C | 47% | 1013.9 hPa | 0 mm | - | 238 W/m² | - |
| 1777033590 | 20° C | 48% | 1013.8 hPa | 0 mm | - | 224 W/m² | - |
| 1777033287 | 20° C | 49% | 1013.9 hPa | 0 mm | - | 209 W/m² | - |
| 1777032984 | 20° C | 50% | 1013.8 hPa | 0 mm | - | 192 W/m² | - |
| 1777032680 | 19.44° C | 49% | 1014.1 hPa | 0 mm | - | 178 W/m² | - |
| 1777032376 | 18.89° C | 51% | 1013.8 hPa | 0 mm | - | 161 W/m² | - |
| 1777032071 | 18.89° C | 52% | 1013.7 hPa | 0 mm | - | 148 W/m² | - |
| 1777031767 | 18.89° C | 52% | 1013.9 hPa | 0 mm | - | 88 W/m² | - |
| 1777031467 | 18.33° C | 52% | 1013.7 hPa | 0 mm | - | 86 W/m² | - |
* Rain latest hour (hover to see other rain measurements)
** Current wind speed in m/s (hover to see current wind gust speed)